Location: Siloam Springs
(36.1881°N, 94.5403°W)
Time: 21:46:43
(UTC-06:00)

ISS - Visible Passes

Search period start: 27 February 2024 00:00
Search period end: 08 March 2024 00:00
Orbit: 414 x 422 km, 51.6° (Epoch: 27 February)

Date Brightness Start Highest point End Pass type
(mag) Time Alt. Az. Time Alt. Az. Time Alt. Az.
01 Mar -1.0 06:09:10 10° N 06:10:53 13° NNE 06:12:36 10° NE visible
03 Mar -1.8 06:09:03 10° NNW 06:11:58 26° NNE 06:14:53 10° E visible
04 Mar -1.2 05:21:19 10° NNW 05:23:44 18° NNE 05:26:08 10° ENE visible
05 Mar -0.9 04:35:11 13° NNE 04:35:23 13° NNE 04:37:01 10° NE visible
05 Mar -3.6 06:09:16 10° NW 06:12:38 76° NE 06:16:00 10° SE visible
06 Mar -2.6 05:22:11 17° NNW 05:24:26 41° NE 05:27:39 10° ESE visible
07 Mar -1.7 04:36:21 25° NE 04:36:21 25° NE 04:39:00 10° E visible
07 Mar -2.8 06:09:52 10° WNW 06:12:53 30° SW 06:15:52 10° SSE visible
